Location: Derby
(52.9213°N, 1.4761°W)
Time: 19:29:40
(UTC+01:00)

Tiros 1 - Pass Details

Date: 20 May 2025
Orbit: 620 x 651 km, 48.4° (Epoch: 13 June)

Event Time Altitude Azimuth Distance (km) Brightness Sun altitude
Rises 20:15:25 0° 250° (WSW) 2,897 11.2 5.6°
Reaches altitude 10° 20:17:47 10° 244° (WSW) 1,995 10.3 5.3°
Maximum altitude 20:22:09 46° 172° (S) 847 7.6 4.7°
Drops below altitude 10° 20:26:35 10° 99° (E) 2,015 9.1 4.1°
Sets 20:28:59 0° 94° (E) 2,930 9.9 3.8°
